TimeCDT,TemperatureF,Dew PointF,Humidity,Sea Level PressureIn,VisibilityMPH,Wind Direction,Wind SpeedMPH,Gust SpeedMPH,PrecipitationIn,Events,Conditions,WindDirDegrees,DateUTC
12:55 AM,73.4,68.0,83,30.01,10.0,South,18.4,23.0,N/A,,Clear,170,2012-10-13 05:55:00
1:15 AM,73.4,68.0,83,30.01,10.0,South,16.1,24.2,N/A,,Clear,170,2012-10-13 06:15:00
1:35 AM,73.4,68.0,83,30.01,10.0,SSE,13.8,19.6,N/A,,Clear,160,2012-10-13 06:35:00
1:55 AM,71.6,68.0,88,30.01,10.0,South,13.8,19.6,N/A,,Clear,170,2012-10-13 06:55:00
2:15 AM,71.6,66.2,83,30.00,10.0,South,11.5,19.6,N/A,,Clear,170,2012-10-13 07:15:00
2:35 AM,71.6,68.0,88,29.99,10.0,SSE,12.7,18.4,N/A,,Clear,160,2012-10-13 07:35:00
2:55 AM,71.6,68.0,88,29.99,10.0,South,10.4,-,N/A,,Clear,170,2012-10-13 07:55:00
3:35 AM,71.6,68.0,88,29.99,10.0,South,9.2,-,N/A,,Mostly Cloudy,170,2012-10-13 08:35:00
3:55 AM,69.8,66.2,88,29.99,10.0,South,8.1,-,N/A,,Overcast,180,2012-10-13 08:55:00
4:15 AM,69.8,66.2,88,29.97,10.0,SSE,10.4,-,N/A,,Scattered Clouds,160,2012-10-13 09:15:00
4:35 AM,69.8,64.4,83,29.97,10.0,South,11.5,-,N/A,,Scattered Clouds,170,2012-10-13 09:35:00
4:55 AM,68.0,64.4,88,29.96,10.0,SSE,13.8,18.4,N/A,,Clear,160,2012-10-13 09:55:00
5:15 AM,68.0,64.4,88,29.95,10.0,SSE,13.8,20.7,N/A,,Clear,160,2012-10-13 10:15:00
5:35 AM,68.0,66.2,94,29.96,10.0,SSE,11.5,-,N/A,,Clear,160,2012-10-13 10:35:00
5:55 AM,68.0,66.2,94,29.96,10.0,SSE,10.4,-,N/A,,Clear,160,2012-10-13 10:55:00
6:15 AM,68.0,66.2,94,29.96,10.0,SSE,8.1,-,N/A,,Scattered Clouds,160,2012-10-13 11:15:00
6:35 AM,68.0,66.2,94,29.97,10.0,SSE,9.2,-,N/A,,Mostly Cloudy,160,2012-10-13 11:35:00
6:55 AM,68.0,66.2,94,29.97,10.0,SSE,10.4,-,N/A,,Overcast,150,2012-10-13 11:55:00
7:15 AM,68.0,66.2,94,29.97,10.0,SSE,8.1,-,N/A,,Overcast,160,2012-10-13 12:15:00
7:35 AM,68.0,66.2,94,29.96,10.0,South,16.1,19.6,N/A,Rain,Rain,180,2012-10-13 12:35:00
7:55 AM,68.0,66.2,94,29.95,10.0,SSE,13.8,-,N/A,,Overcast,160,2012-10-13 12:55:00
8:15 AM,69.8,68.0,94,29.93,10.0,South,16.1,24.2,N/A,,Overcast,170,2012-10-13 13:15:00
8:35 AM,71.6,68.0,88,29.93,10.0,South,15.0,20.7,N/A,,Overcast,170,2012-10-13 13:35:00
8:55 AM,69.8,68.0,94,29.93,10.0,SSE,15.0,-,N/A,,Overcast,160,2012-10-13 13:55:00
9:35 AM,71.6,68.0,88,29.92,10.0,South,16.1,21.9,N/A,,Overcast,170,2012-10-13 14:35:00
9:55 AM,71.6,68.0,88,29.92,10.0,South,16.1,19.6,N/A,,Overcast,170,2012-10-13 14:55:00
10:15 AM,73.4,69.8,88,29.93,10.0,South,13.8,25.3,N/A,,Overcast,180,2012-10-13 15:15:00
10:35 AM,73.4,69.8,88,29.92,10.0,South,17.3,24.2,N/A,,Overcast,180,2012-10-13 15:35:00
10:55 AM,73.4,69.8,88,29.91,10.0,South,20.7,29.9,N/A,,Overcast,180,2012-10-13 15:55:00
11:15 AM,73.4,69.8,88,29.91,10.0,South,21.9,28.8,N/A,,Overcast,180,2012-10-13 16:15:00
11:35 AM,73.4,69.8,88,29.90,10.0,South,17.3,26.5,N/A,,Overcast,190,2012-10-13 16:35:00
11:55 AM,73.4,69.8,88,29.89,10.0,South,21.9,28.8,N/A,Rain,Rain,190,2012-10-13 16:55:00
12:15 PM,71.6,69.8,94,29.89,5.0,South,13.8,24.2,0.08,Rain,Light Rain,190,2012-10-13 17:15:00
12:35 PM,71.6,69.8,94,29.89,7.0,SSW,12.7,19.6,0.09,Rain,Light Rain,200,2012-10-13 17:35:00
1:15 PM,73.4,71.6,94,29.86,10.0,South,18.4,23.0,0.01,,Mostly Cloudy,190,2012-10-13 18:15:00
1:35 PM,73.4,71.6,94,29.84,10.0,South,20.7,26.5,0.01,,Overcast,180,2012-10-13 18:35:00
1:55 PM,73.4,71.6,94,29.82,10.0,South,18.4,25.3,0.01,,Overcast,190,2012-10-13 18:55:00
2:15 PM,77.0,71.6,83,29.79,10.0,South,21.9,29.9,N/A,,Mostly Cloudy,190,2012-10-13 19:15:00
2:35 PM,77.0,69.8,78,29.79,10.0,South,20.7,28.8,N/A,,Scattered Clouds,190,2012-10-13 19:35:00
2:55 PM,75.2,69.8,83,29.77,10.0,South,17.3,29.9,N/A,Rain,Light Rain,190,2012-10-13 19:55:00
3:15 PM,75.2,69.8,83,29.76,10.0,South,17.3,24.2,N/A,,Mostly Cloudy,190,2012-10-13 20:15:00
3:35 PM,77.0,71.6,83,29.76,10.0,SSW,12.7,24.2,N/A,,Mostly Cloudy,200,2012-10-13 20:35:00
3:55 PM,77.0,71.6,83,29.77,10.0,SSW,16.1,20.7,N/A,Rain,Light Rain,210,2012-10-13 20:55:00
4:15 PM,68.0,64.4,88,29.79,1.2,WNW,6.9,17.3,0.36,Rain,Heavy Rain,290,2012-10-13 21:15:00
4:35 PM,68.0,68.0,100,29.75,5.0,North,9.2,-,0.56,Rain,Light Rain,10,2012-10-13 21:35:00
4:55 PM,68.0,68.0,100,29.75,10.0,NW,12.7,18.4,0.56,,Overcast,310,2012-10-13 21:55:00
5:15 PM,68.0,66.2,94,29.76,10.0,West,5.8,-,N/A,Rain,Light Rain,260,2012-10-13 22:15:00
5:35 PM,69.8,68.0,94,29.75,10.0,South,12.7,20.7,N/A,,Overcast,180,2012-10-13 22:35:00
5:55 PM,73.4,69.8,88,29.73,10.0,South,12.7,19.6,N/A,,Scattered Clouds,190,2012-10-13 22:55:00
6:15 PM,71.6,68.0,88,29.73,5.0,SSW,15.0,20.7,0.01,Rain,Rain,200,2012-10-13 23:15:00
6:35 PM,69.8,68.0,94,29.71,10.0,South,15.0,24.2,0.01,,Mostly Cloudy,190,2012-10-13 23:35:00
7:15 PM,71.6,68.0,88,29.73,10.0,SSW,10.4,-,N/A,,Clear,200,2012-10-14 00:15:00
7:35 PM,71.6,69.8,94,29.74,10.0,South,15.0,-,N/A,,Scattered Clouds,190,2012-10-14 00:35:00
7:55 PM,69.8,66.2,88,29.74,10.0,SSW,12.7,17.3,N/A,,Scattered Clouds,210,2012-10-14 00:55:00
8:35 PM,68.0,66.2,94,29.76,10.0,SW,9.2,-,N/A,,Clear,230,2012-10-14 01:35:00
9:15 PM,68.0,64.4,88,29.77,10.0,WSW,9.2,-,N/A,,Clear,240,2012-10-14 02:15:00
9:35 PM,68.0,62.6,83,29.78,10.0,WSW,9.2,-,N/A,,Clear,240,2012-10-14 02:35:00
9:55 PM,64.4,59.0,83,29.78,10.0,WSW,8.1,-,N/A,,Clear,240,2012-10-14 02:55:00
10:15 PM,64.4,55.4,73,29.77,10.0,WSW,9.2,-,N/A,,Scattered Clouds,240,2012-10-14 03:15:00
10:55 PM,62.6,51.8,68,29.79,10.0,SW,5.8,-,N/A,,Mostly Cloudy,230,2012-10-14 03:55:00
11:35 PM,62.6,46.4,55,29.81,10.0,West,11.5,17.3,N/A,,Clear,270,2012-10-14 04:35:00